Year,Month,Day,Hour,Minute,Value (Times are PST for temperature in C)
2014,06,08,00,00,16.90
2014,06,08,00,05,16.90
2014,06,08,00,06,16.90
2014,06,08,00,07,16.90
2014,06,08,00,08,16.90
2014,06,08,00,09,16.90
2014,06,08,00,10,16.90
2014,06,08,00,11,16.90
2014,06,08,00,12,16.90
2014,06,08,00,13,16.80
2014,06,08,00,14,16.80
2014,06,08,00,15,16.80
2014,06,08,00,16,16.80
2014,06,08,00,17,16.80
2014,06,08,00,18,16.80
2014,06,08,00,19,16.80
2014,06,08,00,20,16.80
2014,06,08,00,21,16.80
2014,06,08,00,22,16.80
2014,06,08,00,23,16.80
2014,06,08,00,24,16.80
2014,06,08,00,25,16.80
2014,06,08,00,26,16.80
2014,06,08,00,27,16.80
2014,06,08,00,28,16.80
2014,06,08,00,29,16.80
2014,06,08,00,30,16.80
2014,06,08,00,31,16.80
2014,06,08,00,32,16.80
2014,06,08,00,33,16.80
2014,06,08,00,34,16.80
2014,06,08,00,35,16.80
2014,06,08,00,36,16.80
2014,06,08,00,37,16.80
2014,06,08,00,38,16.80
2014,06,08,00,39,16.80
2014,06,08,00,40,16.80
2014,06,08,00,41,16.80
2014,06,08,00,42,16.80
2014,06,08,00,43,16.80
2014,06,08,00,44,16.80
2014,06,08,00,45,16.80
2014,06,08,00,46,16.80
2014,06,08,00,47,16.80
2014,06,08,00,48,16.80
2014,06,08,00,49,16.80
2014,06,08,00,50,16.70
2014,06,08,00,51,16.70
2014,06,08,00,52,16.70
2014,06,08,00,53,16.70
2014,06,08,00,54,16.70
2014,06,08,00,55,16.70
2014,06,08,00,56,16.60
2014,06,08,00,57,16.60
2014,06,08,00,58,16.60
2014,06,08,00,59,16.60
2014,06,08,01,00,16.60
2014,06,08,01,01,16.60
2014,06,08,01,02,16.70
2014,06,08,01,03,16.80
2014,06,08,01,04,16.80
2014,06,08,01,05,16.80
2014,06,08,01,06,16.90
2014,06,08,01,07,16.90
2014,06,08,01,08,16.90
2014,06,08,01,09,16.90
2014,06,08,01,10,16.90
2014,06,08,01,11,16.80
2014,06,08,01,12,16.80
2014,06,08,01,13,16.70
2014,06,08,01,14,16.70
2014,06,08,01,15,16.70
2014,06,08,01,16,16.70
2014,06,08,01,17,16.70
2014,06,08,01,18,16.60
2014,06,08,01,19,16.60
2014,06,08,01,20,16.50
2014,06,08,01,21,16.50
2014,06,08,01,22,16.50
2014,06,08,01,23,16.50
2014,06,08,01,24,16.40
2014,06,08,01,25,16.40
2014,06,08,01,26,16.30
2014,06,08,01,27,16.30
2014,06,08,01,28,16.30
2014,06,08,01,29,16.20
2014,06,08,01,30,16.30
2014,06,08,01,31,16.30
2014,06,08,01,32,16.20
2014,06,08,01,33,16.20
2014,06,08,01,34,16.20
2014,06,08,01,35,16.20
2014,06,08,01,36,16.10
2014,06,08,01,37,16.10
2014,06,08,01,38,16.10
2014,06,08,01,39,16.10
2014,06,08,01,40,16.10
2014,06,08,01,41,16.10
2014,06,08,01,42,16.00
2014,06,08,01,43,16.00
2014,06,08,01,44,16.00
2014,06,08,01,45,16.00
2014,06,08,01,46,16.00
2014,06,08,01,47,16.10
2014,06,08,01,48,16.10
2014,06,08,01,49,16.10
2014,06,08,01,50,16.10
2014,06,08,01,51,16.00
2014,06,08,01,52,16.00
2014,06,08,01,53,16.00
2014,06,08,01,54,16.00
2014,06,08,01,55,16.00
2014,06,08,01,56,16.00
2014,06,08,01,57,16.00
2014,06,08,01,58,16.00
2014,06,08,01,59,16.00
2014,06,08,02,00,16.00
2014,06,08,02,01,15.90
2014,06,08,02,02,15.90
2014,06,08,02,03,15.90
2014,06,08,02,04,15.90
2014,06,08,02,05,15.90
2014,06,08,02,06,15.80
2014,06,08,02,07,15.80
2014,06,08,02,08,15.80
2014,06,08,02,09,15.80
2014,06,08,02,10,15.90
2014,06,08,02,11,15.90
2014,06,08,02,12,15.80
2014,06,08,02,13,15.80
2014,06,08,02,14,15.80
2014,06,08,02,15,15.80
2014,06,08,02,16,15.80
2014,06,08,02,17,15.80
2014,06,08,02,18,15.80
2014,06,08,02,19,15.80
2014,06,08,02,20,15.90
2014,06,08,02,21,15.90
2014,06,08,02,22,15.90
2014,06,08,02,23,15.90
2014,06,08,02,24,15.90
2014,06,08,02,25,15.90
2014,06,08,02,26,15.90
2014,06,08,02,27,15.90
2014,06,08,02,28,15.80
2014,06,08,02,29,15.80
2014,06,08,02,30,15.80
2014,06,08,02,31,15.80
2014,06,08,02,32,15.70
2014,06,08,02,33,15.70
2014,06,08,02,34,15.70
2014,06,08,02,35,15.70
2014,06,08,02,36,15.70
2014,06,08,02,37,15.70
2014,06,08,02,38,15.70
2014,06,08,02,39,15.60
2014,06,08,02,40,15.60
2014,06,08,02,41,15.60
2014,06,08,02,42,15.60
2014,06,08,02,43,15.60
2014,06,08,02,44,15.60
2014,06,08,02,45,15.60
2014,06,08,02,46,15.50
2014,06,08,02,47,15.50
2014,06,08,02,48,15.60
2014,06,08,02,49,15.60
2014,06,08,02,50,15.50
2014,06,08,02,51,15.50
2014,06,08,02,52,15.60
2014,06,08,02,53,15.50
2014,06,08,02,54,15.50
2014,06,08,02,55,15.40
2014,06,08,02,56,15.40
2014,06,08,02,57,15.40
2014,06,08,02,58,15.30
2014,06,08,02,59,15.30
2014,06,08,03,00,15.30
2014,06,08,03,01,15.30
2014,06,08,03,02,15.20
2014,06,08,03,03,15.20
2014,06,08,03,04,15.20
2014,06,08,03,05,15.20
2014,06,08,03,06,15.10
2014,06,08,03,07,15.10
2014,06,08,03,08,15.20
2014,06,08,03,09,15.20
2014,06,08,03,10,15.10
2014,06,08,03,11,15.10
2014,06,08,03,12,15.10
2014,06,08,03,13,15.00
2014,06,08,03,14,14.90
2014,06,08,03,15,14.90
2014,06,08,03,16,14.90
2014,06,08,03,17,14.90
2014,06,08,03,18,14.90
2014,06,08,03,19,14.80
2014,06,08,03,20,14.70
2014,06,08,03,21,14.70
2014,06,08,03,22,14.70
2014,06,08,03,23,14.70
2014,06,08,03,24,14.70
2014,06,08,03,25,14.60
2014,06,08,03,26,14.60
2014,06,08,03,27,14.60
2014,06,08,03,28,14.60
2014,06,08,03,29,14.50
2014,06,08,03,30,14.50
2014,06,08,03,31,14.50
2014,06,08,03,32,14.40
2014,06,08,03,33,14.40
2014,06,08,03,34,14.40
2014,06,08,03,35,14.30
2014,06,08,03,36,14.30
2014,06,08,03,37,14.30
2014,06,08,03,38,14.20
2014,06,08,03,39,14.20
2014,06,08,03,40,14.20
2014,06,08,03,41,14.20
2014,06,08,03,42,14.20
2014,06,08,03,43,14.20
2014,06,08,03,44,14.20
2014,06,08,03,45,14.20
2014,06,08,03,46,14.10
2014,06,08,03,47,14.10
2014,06,08,03,48,14.10
2014,06,08,03,49,14.00
2014,06,08,03,50,14.00
2014,06,08,03,51,13.90
2014,06,08,03,52,13.90
2014,06,08,03,53,13.90
2014,06,08,03,54,13.90
2014,06,08,03,55,13.90
2014,06,08,03,56,13.80
2014,06,08,03,57,13.80
2014,06,08,03,58,13.70
2014,06,08,03,59,13.80
2014,06,08,04,00,13.80
2014,06,08,04,01,13.80
2014,06,08,04,02,13.70
2014,06,08,04,03,13.70
2014,06,08,04,04,13.70
2014,06,08,04,05,13.70
2014,06,08,04,06,13.70
2014,06,08,04,07,13.70
2014,06,08,04,08,13.60
2014,06,08,04,09,13.60
2014,06,08,04,10,13.60
2014,06,08,04,11,13.60
2014,06,08,04,12,13.60
2014,06,08,04,13,13.60
2014,06,08,04,14,13.60
2014,06,08,04,15,13.60
2014,06,08,04,16,13.60
2014,06,08,04,17,13.60
2014,06,08,04,18,13.60
2014,06,08,04,19,13.60
2014,06,08,04,20,13.60
2014,06,08,04,21,13.60
2014,06,08,04,22,13.50
2014,06,08,04,23,13.50
2014,06,08,04,24,13.50
2014,06,08,04,25,13.40
2014,06,08,04,26,13.40
2014,06,08,04,27,13.40
2014,06,08,04,28,13.40
2014,06,08,04,29,13.40
2014,06,08,04,30,13.40
2014,06,08,04,31,13.40
2014,06,08,04,32,13.40
2014,06,08,04,33,13.40
2014,06,08,04,34,13.40
2014,06,08,04,35,13.40
2014,06,08,04,36,13.40
2014,06,08,04,37,13.40
2014,06,08,04,38,13.30
2014,06,08,04,39,13.30
2014,06,08,04,40,13.30
2014,06,08,04,41,13.30
2014,06,08,04,42,13.30
2014,06,08,04,43,13.30
2014,06,08,04,44,13.30
2014,06,08,04,45,13.20
2014,06,08,04,46,13.20
2014,06,08,04,47,13.30
2014,06,08,04,48,13.20
2014,06,08,04,49,13.20
2014,06,08,04,50,13.20
2014,06,08,04,51,13.20
2014,06,08,04,52,13.20
2014,06,08,04,53,13.20
2014,06,08,04,54,13.20
2014,06,08,04,55,13.20
2014,06,08,04,56,13.20
2014,06,08,04,57,13.20
2014,06,08,04,58,13.20
2014,06,08,04,59,13.20
2014,06,08,05,00,13.20
2014,06,08,05,01,13.20
2014,06,08,05,02,13.20
2014,06,08,05,03,13.20
2014,06,08,05,04,13.20
2014,06,08,05,05,13.20
2014,06,08,05,06,13.20
2014,06,08,05,07,13.10
2014,06,08,05,08,13.10
2014,06,08,05,09,13.10
2014,06,08,05,10,13.10
2014,06,08,05,11,13.10
2014,06,08,05,12,13.10
2014,06,08,05,13,13.10
2014,06,08,05,14,13.10
2014,06,08,05,15,13.10
2014,06,08,05,16,13.10
2014,06,08,05,17,13.10
2014,06,08,05,18,13.10
2014,06,08,05,19,13.00
2014,06,08,05,20,13.00
2014,06,08,05,21,13.00
2014,06,08,05,22,13.00
2014,06,08,05,23,13.00
2014,06,08,05,24,13.00
2014,06,08,05,25,13.00
2014,06,08,05,26,13.00
2014,06,08,05,27,13.00
2014,06,08,05,28,13.00
2014,06,08,05,29,12.90
2014,06,08,05,30,12.90
2014,06,08,05,31,13.00
2014,06,08,05,32,13.00
2014,06,08,05,33,13.00
2014,06,08,05,34,13.00
2014,06,08,05,35,13.00
2014,06,08,05,36,13.10
2014,06,08,05,37,13.10
2014,06,08,05,38,13.10
2014,06,08,05,39,13.10
2014,06,08,05,40,13.10
2014,06,08,05,41,13.10
2014,06,08,05,42,13.10
2014,06,08,05,43,13.10
2014,06,08,05,44,13.10
2014,06,08,05,45,13.10
2014,06,08,05,46,13.10
2014,06,08,05,47,13.10
2014,06,08,05,48,13.10
2014,06,08,05,49,13.10
2014,06,08,05,50,13.10
2014,06,08,05,51,13.00
2014,06,08,05,52,13.00
2014,06,08,05,53,13.00
2014,06,08,05,54,13.00
2014,06,08,05,55,13.00
2014,06,08,05,56,13.10
2014,06,08,05,57,13.10
2014,06,08,05,58,13.10
2014,06,08,05,59,13.10
2014,06,08,06,00,13.10
2014,06,08,06,01,13.10
2014,06,08,06,02,13.10
2014,06,08,06,03,13.10
2014,06,08,06,04,13.20
2014,06,08,06,05,13.20
2014,06,08,06,06,13.20
2014,06,08,06,07,13.20
2014,06,08,06,08,13.20
2014,06,08,06,09,13.20
2014,06,08,06,10,13.20
2014,06,08,06,11,13.20
2014,06,08,06,12,13.20
2014,06,08,06,13,13.20
2014,06,08,06,14,13.20
2014,06,08,06,15,13.20
2014,06,08,06,16,13.20
2014,06,08,06,17,13.20
2014,06,08,06,18,13.20
2014,06,08,06,19,13.20
2014,06,08,06,20,13.20
2014,06,08,06,21,13.20
2014,06,08,06,22,13.20
2014,06,08,06,23,13.20
2014,06,08,06,24,13.20
2014,06,08,06,25,13.20
2014,06,08,06,26,13.20
2014,06,08,06,27,13.20
2014,06,08,06,28,13.20
2014,06,08,06,29,13.20
2014,06,08,06,30,13.20
2014,06,08,06,31,13.20
2014,06,08,06,32,13.20
2014,06,08,06,33,13.30
2014,06,08,06,34,13.30
2014,06,08,06,35,13.30
2014,06,08,06,36,13.30
2014,06,08,06,37,13.40
2014,06,08,06,38,13.40
2014,06,08,06,39,13.40
2014,06,08,06,40,13.50
2014,06,08,06,41,13.60
2014,06,08,06,42,13.60
2014,06,08,06,43,13.60
2014,06,08,06,44,13.60
2014,06,08,06,45,13.60
2014,06,08,06,46,13.70
2014,06,08,06,47,13.70
2014,06,08,06,48,13.70
2014,06,08,06,49,13.70
2014,06,08,06,50,13.70
2014,06,08,06,51,13.80
2014,06,08,06,52,13.80
2014,06,08,06,53,13.80
2014,06,08,06,54,13.80
2014,06,08,06,55,13.80
2014,06,08,06,56,13.80
2014,06,08,06,57,13.80
2014,06,08,06,58,13.80
2014,06,08,06,59,13.90
2014,06,08,07,00,13.90
2014,06,08,07,01,13.90
2014,06,08,07,02,13.90
2014,06,08,07,03,14.00
2014,06,08,07,04,14.00
2014,06,08,07,05,14.00
2014,06,08,07,06,14.10
2014,06,08,07,07,14.10
2014,06,08,07,08,14.20
2014,06,08,07,09,14.20
2014,06,08,07,10,14.20
2014,06,08,07,11,14.30
2014,06,08,07,12,14.30
2014,06,08,07,13,14.30
2014,06,08,07,14,14.40
2014,06,08,07,15,14.40
2014,06,08,07,16,14.50
2014,06,08,07,17,14.60
2014,06,08,07,18,14.60
2014,06,08,07,19,14.70
2014,06,08,07,20,14.80
2014,06,08,07,21,14.80
2014,06,08,07,22,14.90
2014,06,08,07,23,14.90
2014,06,08,07,24,15.00
2014,06,08,07,25,15.10
2014,06,08,07,26,15.20
2014,06,08,07,27,15.20
2014,06,08,07,28,15.30
2014,06,08,07,29,15.30
2014,06,08,07,30,15.40
2014,06,08,07,31,15.50
2014,06,08,07,32,15.50
2014,06,08,07,33,15.60
2014,06,08,07,34,15.60
2014,06,08,07,35,15.70
2014,06,08,07,36,15.70
2014,06,08,07,37,15.70
2014,06,08,07,38,15.70
2014,06,08,07,39,15.80
2014,06,08,07,40,15.80
2014,06,08,07,41,15.80
2014,06,08,07,42,15.80
2014,06,08,07,43,15.80
2014,06,08,07,44,15.80
2014,06,08,07,45,15.90
2014,06,08,07,46,15.90
2014,06,08,07,47,15.90
2014,06,08,07,48,16.00
2014,06,08,07,49,16.00
2014,06,08,07,50,16.10
2014,06,08,07,51,16.10
2014,06,08,07,52,16.20
2014,06,08,07,53,16.20
2014,06,08,07,54,16.30
2014,06,08,07,55,16.30
2014,06,08,07,56,16.30
2014,06,08,07,57,16.40
2014,06,08,07,58,16.40
2014,06,08,07,59,16.50
2014,06,08,08,00,16.60
2014,06,08,08,01,16.60
2014,06,08,08,02,16.70
2014,06,08,08,03,16.70
2014,06,08,08,04,16.80
2014,06,08,08,05,16.80
2014,06,08,08,06,16.90
2014,06,08,08,07,16.90
2014,06,08,08,08,16.90
2014,06,08,08,09,16.90
2014,06,08,08,10,17.00
2014,06,08,08,11,17.00
2014,06,08,08,12,17.00
2014,06,08,08,13,17.10
2014,06,08,08,14,17.10
2014,06,08,08,15,17.10
2014,06,08,08,16,17.10
2014,06,08,08,17,17.10
2014,06,08,08,18,17.10
2014,06,08,08,19,17.10
2014,06,08,08,20,17.10
2014,06,08,08,21,17.10
2014,06,08,08,22,17.10
2014,06,08,08,23,17.10
2014,06,08,08,24,17.10
2014,06,08,08,25,17.10
2014,06,08,08,26,17.10
2014,06,08,08,27,17.10
2014,06,08,08,28,17.10
2014,06,08,08,29,17.10
2014,06,08,08,30,17.10
2014,06,08,08,31,17.10
2014,06,08,08,32,17.10
2014,06,08,08,33,17.10
2014,06,08,08,34,17.10
2014,06,08,08,35,17.20
2014,06,08,08,36,17.20
2014,06,08,08,37,17.30
2014,06,08,08,38,17.30
2014,06,08,08,39,17.30
2014,06,08,08,40,17.40
2014,06,08,08,41,17.50
2014,06,08,08,42,17.50
2014,06,08,08,43,17.60
2014,06,08,08,44,17.60
2014,06,08,08,45,17.70
2014,06,08,08,46,17.70
2014,06,08,08,47,17.70
2014,06,08,08,48,17.70
2014,06,08,08,49,17.60
2014,06,08,08,50,17.60
2014,06,08,08,51,17.50
2014,06,08,08,52,17.40
2014,06,08,08,53,17.40
2014,06,08,08,54,17.30
2014,06,08,08,55,17.30
2014,06,08,08,56,17.30
2014,06,08,08,57,17.30
2014,06,08,08,58,17.30
2014,06,08,08,59,17.30
2014,06,08,09,00,17.30
2014,06,08,09,01,17.40
2014,06,08,09,02,17.40
2014,06,08,09,03,17.30
2014,06,08,09,04,17.30
2014,06,08,09,05,17.30
2014,06,08,09,06,17.30
2014,06,08,09,07,17.40
2014,06,08,09,08,17.40
2014,06,08,09,09,17.40
2014,06,08,09,10,17.50
2014,06,08,09,11,17.50
2014,06,08,09,12,17.50
2014,06,08,09,13,17.50
2014,06,08,09,14,17.50
2014,06,08,09,15,17.50
2014,06,08,09,16,17.50
2014,06,08,09,17,17.40
2014,06,08,09,18,17.50
2014,06,08,09,19,17.40
2014,06,08,09,20,17.40
2014,06,08,09,21,17.50
2014,06,08,09,22,17.40
2014,06,08,09,23,17.40
2014,06,08,09,24,17.40
2014,06,08,09,25,17.40
2014,06,08,09,26,17.40
2014,06,08,09,27,17.50
2014,06,08,09,28,17.50
2014,06,08,09,29,17.50
2014,06,08,09,30,17.50
2014,06,08,09,31,17.40
2014,06,08,09,32,17.40
2014,06,08,09,33,17.40
2014,06,08,09,34,17.40
2014,06,08,09,35,17.40
2014,06,08,09,36,17.40
2014,06,08,09,37,17.40
2014,06,08,09,38,17.40
2014,06,08,09,39,17.40
2014,06,08,09,40,17.40
2014,06,08,09,41,17.50
2014,06,08,09,42,17.50
2014,06,08,09,43,17.60
2014,06,08,09,44,17.60
2014,06,08,09,45,17.60
2014,06,08,09,46,17.70
2014,06,08,09,47,17.70
2014,06,08,09,48,17.80
2014,06,08,09,49,17.80
2014,06,08,09,50,17.80
2014,06,08,09,51,17.80
2014,06,08,09,52,17.80
2014,06,08,09,53,17.80
2014,06,08,09,54,17.80
2014,06,08,09,55,17.70
2014,06,08,09,56,17.70
2014,06,08,09,57,17.70
2014,06,08,09,58,17.70
2014,06,08,09,59,17.70
2014,06,08,10,00,17.80
2014,06,08,10,01,17.80
2014,06,08,10,02,17.80
2014,06,08,10,03,17.80
2014,06,08,10,04,17.80
2014,06,08,10,05,17.80
2014,06,08,10,06,17.70
2014,06,08,10,07,17.70
2014,06,08,10,08,17.80
2014,06,08,10,09,17.80
2014,06,08,10,10,17.90
2014,06,08,10,11,17.90
2014,06,08,10,12,18.00
2014,06,08,10,13,18.10
2014,06,08,10,14,18.10
2014,06,08,10,15,18.10
2014,06,08,10,16,18.10
2014,06,08,10,17,18.10
2014,06,08,10,18,18.20
2014,06,08,10,19,18.20
2014,06,08,10,20,18.30
2014,06,08,10,21,18.30
2014,06,08,10,22,18.30
2014,06,08,10,23,18.30
2014,06,08,10,24,18.40
2014,06,08,10,25,18.40
2014,06,08,10,26,18.50
2014,06,08,10,27,18.60
2014,06,08,10,28,18.70
2014,06,08,10,29,18.80
2014,06,08,10,30,18.90
2014,06,08,10,31,19.00
2014,06,08,10,32,19.10
2014,06,08,10,33,19.10
2014,06,08,10,34,18.90
2014,06,08,10,35,18.80
2014,06,08,10,36,18.60
2014,06,08,10,37,18.50
2014,06,08,10,38,18.50
2014,06,08,10,39,18.40
2014,06,08,10,40,18.20
2014,06,08,10,41,18.20
2014,06,08,10,42,18.10
2014,06,08,10,43,18.10
2014,06,08,10,44,18.00
2014,06,08,10,45,18.00
2014,06,08,10,46,18.00
2014,06,08,10,47,18.00
2014,06,08,10,48,17.90
2014,06,08,10,49,17.90
2014,06,08,10,50,17.90
2014,06,08,10,51,17.90
2014,06,08,10,52,17.90
2014,06,08,10,53,17.90
2014,06,08,10,54,17.80
2014,06,08,10,55,17.80
2014,06,08,10,56,17.80
2014,06,08,10,57,17.70
2014,06,08,10,58,17.70
2014,06,08,10,59,17.70
2014,06,08,11,00,17.70
2014,06,08,11,01,17.70
2014,06,08,11,02,17.80
2014,06,08,11,03,17.80
2014,06,08,11,04,17.90
2014,06,08,11,05,17.90
2014,06,08,11,06,17.90
2014,06,08,11,07,17.90
2014,06,08,11,08,17.90
2014,06,08,11,09,17.80
2014,06,08,11,10,17.90
2014,06,08,11,11,17.90
2014,06,08,11,12,18.00
2014,06,08,11,13,18.00
2014,06,08,11,14,17.90
2014,06,08,11,15,17.90
2014,06,08,11,16,17.80
2014,06,08,11,17,17.80
2014,06,08,11,18,17.90
2014,06,08,11,19,17.90
2014,06,08,11,20,17.90
2014,06,08,11,21,17.90
2014,06,08,11,22,17.90
2014,06,08,11,23,17.90
2014,06,08,11,24,17.90
2014,06,08,11,25,17.90
2014,06,08,11,26,17.90
2014,06,08,11,27,17.80
2014,06,08,11,28,17.80
2014,06,08,11,29,17.80
2014,06,08,11,30,17.80
2014,06,08,11,31,17.90
2014,06,08,11,32,17.90
2014,06,08,11,33,17.90
2014,06,08,11,34,17.90
2014,06,08,11,35,17.90
2014,06,08,11,36,18.00
2014,06,08,11,37,18.10
2014,06,08,11,38,18.20
2014,06,08,11,39,18.30
2014,06,08,11,40,18.30
2014,06,08,11,41,18.40
2014,06,08,11,42,18.30
2014,06,08,11,43,18.20
2014,06,08,11,44,18.10
2014,06,08,11,45,18.10
2014,06,08,11,46,18.10
2014,06,08,11,47,18.10
2014,06,08,11,48,18.00
2014,06,08,11,49,18.10
2014,06,08,11,50,18.10
2014,06,08,11,51,18.20
2014,06,08,11,52,18.10
2014,06,08,11,53,18.10
2014,06,08,11,54,18.20
2014,06,08,11,55,18.20
2014,06,08,11,56,18.20
2014,06,08,11,57,18.20
2014,06,08,11,58,18.20
2014,06,08,11,59,18.10
2014,06,08,12,00,18.10
2014,06,08,12,01,18.10
2014,06,08,12,02,18.00
2014,06,08,12,03,17.90
2014,06,08,12,04,17.90
2014,06,08,12,05,17.90
2014,06,08,12,06,17.80
2014,06,08,12,07,17.80
2014,06,08,12,08,17.70
2014,06,08,12,09,17.70
2014,06,08,12,10,17.70
2014,06,08,12,11,17.60
2014,06,08,12,12,17.60
2014,06,08,12,13,17.60
2014,06,08,12,14,17.60
2014,06,08,12,15,17.60
2014,06,08,12,16,17.60
2014,06,08,12,17,17.60
2014,06,08,12,18,17.60
2014,06,08,12,19,17.60
2014,06,08,12,20,17.60
2014,06,08,12,21,17.60
2014,06,08,12,22,17.60
2014,06,08,12,23,17.60
2014,06,08,12,24,17.60
2014,06,08,12,25,17.70
2014,06,08,12,26,17.70
2014,06,08,12,27,17.70
2014,06,08,12,28,17.80
2014,06,08,12,29,17.80
2014,06,08,12,30,17.90
2014,06,08,12,31,17.90
2014,06,08,12,32,18.00
2014,06,08,12,33,18.10
2014,06,08,12,34,18.20
2014,06,08,12,35,18.30
2014,06,08,12,36,18.40
2014,06,08,12,37,18.60
2014,06,08,12,38,18.70
2014,06,08,12,39,18.80
2014,06,08,12,40,18.90
2014,06,08,12,41,19.10
2014,06,08,12,42,19.20
2014,06,08,12,43,19.20
2014,06,08,12,44,19.20
2014,06,08,12,45,19.30
2014,06,08,12,46,19.30
2014,06,08,12,47,19.30
2014,06,08,12,48,19.30
2014,06,08,12,49,19.20
2014,06,08,12,50,19.20
2014,06,08,12,51,19.10
2014,06,08,12,52,19.10
2014,06,08,12,53,19.10
2014,06,08,12,54,19.10
2014,06,08,12,55,19.10
2014,06,08,12,56,19.10
2014,06,08,12,57,19.10
2014,06,08,12,58,19.00
2014,06,08,12,59,19.00
2014,06,08,13,00,18.90
2014,06,08,13,01,18.90
2014,06,08,13,02,18.90
2014,06,08,13,03,18.80
2014,06,08,13,04,18.80
2014,06,08,13,05,18.70
2014,06,08,13,06,18.60
2014,06,08,13,07,18.60
2014,06,08,13,08,18.60
2014,06,08,13,09,18.50
2014,06,08,13,10,18.50
2014,06,08,13,11,18.50
2014,06,08,13,12,18.50
2014,06,08,13,13,18.50
2014,06,08,13,14,18.50
2014,06,08,13,15,18.50
2014,06,08,13,16,18.40
2014,06,08,13,17,18.40
2014,06,08,13,18,18.40
2014,06,08,13,19,18.40
2014,06,08,13,20,18.40
2014,06,08,13,21,18.40
2014,06,08,13,22,18.40
2014,06,08,13,23,18.50
2014,06,08,13,24,18.50
2014,06,08,13,25,18.50
2014,06,08,13,26,18.50
2014,06,08,13,27,18.50
2014,06,08,13,28,18.50
2014,06,08,13,29,18.50
2014,06,08,13,30,18.40
2014,06,08,13,31,18.40
2014,06,08,13,32,18.40
2014,06,08,13,33,18.30
2014,06,08,13,34,18.30
2014,06,08,13,35,18.30
2014,06,08,13,36,18.30
2014,06,08,13,37,18.30
2014,06,08,13,38,18.30
2014,06,08,13,39,18.30
2014,06,08,13,40,18.30
2014,06,08,13,41,18.30
2014,06,08,13,42,18.30
2014,06,08,13,43,18.30
2014,06,08,13,44,18.30
2014,06,08,13,45,18.30
2014,06,08,13,46,18.40
2014,06,08,13,47,18.40
2014,06,08,13,48,18.40
2014,06,08,13,49,18.50
2014,06,08,13,50,18.50
2014,06,08,13,51,18.50
2014,06,08,13,52,18.50
2014,06,08,13,53,18.50
2014,06,08,13,54,18.60
2014,06,08,13,55,18.60
2014,06,08,13,56,18.70
2014,06,08,13,57,18.70
2014,06,08,13,58,18.80
2014,06,08,13,59,18.80
2014,06,08,14,00,18.80
2014,06,08,14,01,18.80
2014,06,08,14,02,18.80
2014,06,08,14,03,18.80
2014,06,08,14,04,18.90
2014,06,08,14,05,18.90
2014,06,08,14,06,19.00
2014,06,08,14,07,19.00
2014,06,08,14,08,19.00
2014,06,08,14,09,19.10
2014,06,08,14,10,19.10
2014,06,08,14,11,19.10
2014,06,08,14,12,19.10
2014,06,08,14,13,19.10
2014,06,08,14,14,19.00
2014,06,08,14,15,19.00
2014,06,08,14,16,18.90
2014,06,08,14,17,18.90
2014,06,08,14,18,18.90
2014,06,08,14,19,18.80
2014,06,08,14,20,18.80
2014,06,08,14,21,18.80
2014,06,08,14,22,18.80
2014,06,08,14,23,18.80
2014,06,08,14,24,18.80
2014,06,08,14,25,18.90
2014,06,08,14,26,19.10
2014,06,08,14,27,19.20
2014,06,08,14,28,19.30
2014,06,08,14,29,19.40
2014,06,08,14,30,19.50
2014,06,08,14,31,19.70
2014,06,08,14,32,19.90
2014,06,08,14,33,20.10
2014,06,08,14,34,20.30
2014,06,08,14,35,20.40
2014,06,08,14,36,20.70
2014,06,08,14,37,20.90
2014,06,08,14,38,21.00
2014,06,08,14,39,21.20
2014,06,08,14,40,21.30
2014,06,08,14,41,21.30
2014,06,08,14,42,21.30
2014,06,08,14,43,21.30
2014,06,08,14,44,21.30
2014,06,08,14,45,21.30
2014,06,08,14,46,21.30
2014,06,08,14,47,21.40
2014,06,08,14,48,21.50
2014,06,08,14,49,21.60
2014,06,08,14,50,21.60
2014,06,08,14,51,21.60
2014,06,08,14,52,21.60
2014,06,08,14,53,21.60
2014,06,08,14,54,21.60
2014,06,08,14,55,21.60
2014,06,08,14,56,21.70
2014,06,08,14,57,21.70
2014,06,08,14,58,21.70
2014,06,08,14,59,21.70
2014,06,08,15,00,21.70
2014,06,08,15,01,21.70
2014,06,08,15,02,21.70
2014,06,08,15,03,21.70
2014,06,08,15,04,21.70
2014,06,08,15,05,21.70
2014,06,08,15,06,21.70
2014,06,08,15,07,21.70
2014,06,08,15,08,21.70
2014,06,08,15,09,21.70
2014,06,08,15,10,21.70
2014,06,08,15,11,21.60
2014,06,08,15,12,21.50
2014,06,08,15,13,21.50
2014,06,08,15,14,21.50
2014,06,08,15,15,21.50
2014,06,08,15,16,21.40
2014,06,08,15,17,21.40
2014,06,08,15,18,21.30
2014,06,08,15,19,21.30
2014,06,08,15,20,21.20
2014,06,08,15,21,21.20
2014,06,08,15,22,21.20
2014,06,08,15,23,21.20
2014,06,08,15,24,21.20
2014,06,08,15,25,21.20
2014,06,08,15,26,21.10
2014,06,08,15,27,21.10
2014,06,08,15,28,21.10
2014,06,08,15,29,21.00
2014,06,08,15,30,21.00
2014,06,08,15,31,20.90
2014,06,08,15,32,20.90
2014,06,08,15,33,20.80
2014,06,08,15,34,20.80
2014,06,08,15,35,20.70
2014,06,08,15,36,20.70
2014,06,08,15,37,20.60
2014,06,08,15,38,20.60
2014,06,08,15,39,20.60
2014,06,08,15,40,20.60
2014,06,08,15,41,20.60
2014,06,08,15,42,20.50
2014,06,08,15,43,20.50
2014,06,08,15,44,20.50
2014,06,08,15,45,20.40
2014,06,08,15,46,20.40
2014,06,08,15,47,20.40
2014,06,08,15,48,20.40
2014,06,08,15,49,20.40
2014,06,08,15,50,20.40
2014,06,08,15,51,20.40
2014,06,08,15,52,20.40
2014,06,08,15,53,20.40
2014,06,08,15,54,20.40
2014,06,08,15,55,20.40
2014,06,08,15,56,20.40
2014,06,08,15,57,20.40
2014,06,08,15,58,20.40
2014,06,08,15,59,20.40
2014,06,08,16,00,20.30
2014,06,08,16,01,20.30
2014,06,08,16,02,20.30
2014,06,08,16,03,20.30
2014,06,08,16,04,20.30
2014,06,08,16,05,20.30
2014,06,08,16,06,20.30
2014,06,08,16,07,20.30
2014,06,08,16,08,20.30
2014,06,08,16,09,20.40
2014,06,08,16,10,20.40
2014,06,08,16,11,20.40
2014,06,08,16,12,20.40
2014,06,08,16,13,20.40
2014,06,08,16,14,20.50
2014,06,08,16,15,20.50
2014,06,08,16,16,20.50
2014,06,08,16,17,20.50
2014,06,08,16,18,20.50
2014,06,08,16,19,20.50
2014,06,08,16,20,20.60
2014,06,08,16,21,20.60
2014,06,08,16,22,20.60
2014,06,08,16,23,20.60
2014,06,08,16,24,20.60
2014,06,08,16,25,20.60
2014,06,08,16,26,20.60
2014,06,08,16,27,20.60
2014,06,08,16,28,20.60
2014,06,08,16,29,20.60
2014,06,08,16,30,20.60
2014,06,08,16,31,20.60
2014,06,08,16,32,20.60
2014,06,08,16,33,20.60
2014,06,08,16,34,20.60
2014,06,08,16,35,20.60
2014,06,08,16,36,20.60
2014,06,08,16,37,20.60
2014,06,08,16,38,20.60
2014,06,08,16,39,20.60
2014,06,08,16,40,20.60
2014,06,08,16,41,20.60
2014,06,08,16,42,20.60
2014,06,08,16,43,20.60
2014,06,08,16,44,20.60
2014,06,08,16,45,20.70
2014,06,08,16,46,20.70
2014,06,08,16,47,20.60
2014,06,08,16,48,20.60
2014,06,08,16,49,20.60
2014,06,08,16,50,20.50
2014,06,08,16,51,20.50
2014,06,08,16,52,20.40
2014,06,08,16,53,20.40
2014,06,08,16,54,20.30
2014,06,08,16,55,20.30
2014,06,08,16,56,20.30
2014,06,08,16,57,20.30
2014,06,08,16,58,20.20
2014,06,08,16,59,20.20
2014,06,08,17,00,20.20
2014,06,08,17,01,20.20
2014,06,08,17,02,20.20
2014,06,08,17,03,20.10
2014,06,08,17,04,20.10
2014,06,08,17,05,20.10
2014,06,08,17,06,20.00
2014,06,08,17,07,20.00
2014,06,08,17,08,19.90
2014,06,08,17,09,19.80
2014,06,08,17,10,19.80
2014,06,08,17,11,19.70
2014,06,08,17,12,19.70
2014,06,08,17,13,19.60
2014,06,08,17,14,19.60
2014,06,08,17,15,19.60
2014,06,08,17,16,19.60
2014,06,08,17,17,19.60
2014,06,08,17,18,19.50
2014,06,08,17,19,19.50
2014,06,08,17,20,19.40
2014,06,08,17,21,19.40
2014,06,08,17,22,19.30
2014,06,08,17,23,19.20